Regional Weather Roundup
Issued by NWS

Home | Current Version | Previous Version | Graphics & Text | Print | Product List | Glossary On
Versions: 1 2 3 4 5 6 7 8 9 10 11 12 13 14 15 16 17 18 19 20 21 22 23 24 25 26 27 28 29 30 31 32 33 34 35 36 37 38 39 40 41 42 43 44 45 46 47 48 49 50
000
ASUS45 KSLC 051110
RWRUT

UTAH REGIONAL WEATHER ROUNDUP
NATIONAL WEATHER SERVICE SALT LAKE CITY UT
500 AM MDT TUE MAY 05 2015

UTZ001>011-023>025-051200-

NORTHERN UTAH

CITY           SKY/WX    TMP DP  RH WIND       PRES   REMARKS
BRIGHAM CITY   MOCLDY    52  47  82 CALM      29.86S
HILL AFB       PTCLDY    51  43  74 E14       29.87S
LOGAN          CLEAR     46  42  86 VRB3      29.87S
OGDEN          PTCLDY    52  43  71 S8        29.85S
PROVO AIRPORT  CLOUDY    54  46  76 NE3       29.88S
SALT LAKE CITY MOCLDY    56  44  64 SE8       29.85S
VERNAL         CLOUDY    51  41  68 CALM      29.90S
WENDOVER       CLOUDY    55  37  50 W6        29.85F
HEBER CITY     MOCLDY    46  41  81 CALM      29.91F
WEST JORDAN    CLOUDY    54  46  76 CALM      29.87F

$$

UTZ012>022-026-027-051200-

SOUTHERN/CENTRAL UTAH

CITY           SKY/WX    TMP DP  RH WIND       PRES   REMARKS
BLANDING       CLOUDY    49  48  97 CALM      30.01S
BRYCE CANYON   MOCLDY    41  39  93 CALM      29.99S
CEDAR CITY     LGT RAIN  48  47  96 N3        29.93S
DELTA          CLOUDY    53  48  82 S8        29.89S
HANKSVILLE     CLOUDY    55  50  82 CALM      29.89S
MILFORD        LGT RAIN  51  48  89 S9        29.90F
MOAB/CYNLANDS  CLOUDY    57  50  77 W3        29.85S
PRICE          CLOUDY    51  45  79 N6        29.91F
ST GEORGE      CLOUDY    61  52  72 SW5       29.89S
KANAB          MOCLDY    46  46 100 CALM      29.96S

$$

REGIONAL REPORTS     COLORADO/ARIZONA

CITY           SKY/WX    TMP DP  RH WIND       PRES   REMARKS
CRAIG, CO      CLEAR     36  32  85 E3        29.96F
GRAND JUNCTION CLOUDY    56  43  61 SE16      29.88S
RIFLE          PTCLDY    44  40  85 CALM      29.92F
MONTROSE       CLOUDY    50  46  86 CALM      29.94F
CORTEZ         RAIN      47  46  97 CALM      29.95F
PAGE, AZ       CLOUDY    55  51  86 S5        29.88S
GRAND CANYON   CLOUDY    43  43 100 W6        29.98S
KINGMAN        LGT RAIN  55  51  86 E7        29.91F
FLAGSTAFF      CLOUDY    42  41  96 SW7       29.99F

$$

REGIONAL REPORTS    NEVADA/IDAHO/WYOMING

CITY           SKY/WX    TMP DP  RH WIND       PRES   REMARKS
LAS VEGAS, NV  CLOUDY    65  46  50 SE7       29.78F
ELY            CLOUDY    41  33  73 S12       29.95S
ELKO           PTCLDY    46  36  68 NE5       29.89F
POCATELLO, ID  CLOUDY    46  38  73 NW3       29.85F
BURLEY         MOCLDY    51  40  65 NW5       29.82S
EVANSTON, WY   PTCLDY    43  36  76 E3        29.97F
ROCK SPRINGS   PTCLDY    43  37  79 N5        29.96F
KEMMERER       PTCLDY    37  36  93 N10       29.98F WCI  30

$$



USA.gov is the U.S. government's official web portal to all federal, state and local government web resources and services.